Location: Seattle
(47.6064°N, 122.3308°W)
Time: 04:53:28
(UTC-08:00)

N. Korean satellite - Pass Details

Date: 08 December 2022
Orbit: 407 x 441 km, 97.3° (Epoch: 05 February)

Event Time Altitude Azimuth Distance (km) Brightness Sun altitude
Rises 06:48:06 0° 354° (N) 2,511 9.9 -9.2°
Reaches altitude 10° 06:51:01 10° 327° (NNW) 1,620 8.7 -8.7°
Maximum altitude 06:52:44 13° 297° (WNW) 1,415 8.2 -8.5°
Drops below altitude 10° 06:54:27 10° 267° (W) 1,599 8.6 -8.2°
Sets 06:57:17 0° 240° (WSW) 2,452 9.8 -7.8°
